Flag for Germany Weather past 2 weeks in Marburg, Hesse, Germany

Now
57 °F

Overcast.


Feels Like: 57 °F
Forecast: 50 / 65 °F
Wind: 2 mph from Northwest

Location: Giessen

Current Time: Sep 1, 2014 at 10:34:45 PM

Latest Report: Sep 1, 2014 at 10:00 PM


Visibility: 14 mi

Pressure: 30.15 "Hg

Humidity: 85%

Dew point: 53 °F

Location of MarburgLocation

Historic Weather in Marburg — Graph

°F

Marburg temperature yesterday

Maximum temperature yesterday: 66 °F (at 2:00 PM)
Minimum temperature yesterday: 53 °F (at 11:00 PM)
Average temperature yesterday: 59 °F

Past Weeks' High & Low Weather Summary

 TemperatureHumidityPressure
High74 °F (Aug 29, 4:00 PM)99% (Aug 30, 5:00 AM)30.14 "Hg (Aug 30, 5:00 AM)
Low42 °F (Aug 25, 4:00 AM)40% (Aug 21, 4:00 PM)29.66 "Hg (Aug 26, 7:00 AM)
Average57 °F81%29.96 "Hg
* Reported Aug 17 9:00 PM — Sep 1 9:00 PM, Marburg, Weather by CustomWeather, © 2014

Note: Actual official high and low records may vary slightly from our data, if they occured in-between our weather recording intervals... More about our weather records

Advertising

Marburg weather history for previous 24 hours

 ConditionsComfort  
Time TempWeatherWind HumidityBarometerVisibility
9:00 PM
Sep 1
58 °FOvercast.1 mph83%30.14 "Hg12 mi
8:00 PM60 °FOvercast.2 mph80%30.13 "Hg12 mi
7:00 PM61 °FOvercast.2 mph73%30.13 "Hg16 mi
6:00 PM62 °FOvercast.3 mph68%30.13 "Hg16 mi
5:00 PM64 °FOvercast.5 mph67%30.13 "Hg19 mi
4:00 PM64 °FOvercast.6 mph68%30.12 "Hg19 mi
3:00 PM62 °FOvercast.5 mph69%30.12 "Hg28 mi
2:00 PM64 °FOvercast.6 mph64%30.13 "Hg28 mi
1:00 PM60 °FOvercast.6 mph75%30.14 "Hg17 mi
12:00 PM61 °FOvercast.5 mph76%30.13 "Hg22 mi
11:00 AM59 °FOvercast.5 mph78%30.13 "Hg18 mi
10:00 AM60 °FScattered clouds.3 mph81%30.11 "Hg17 mi
9:00 AM55 °FPassing clouds.2 mph94%30.11 "Hg6 mi
8:00 AM49 °FFog.1 mph98%30.12 "Hg3 mi
7:00 AM47 °FSunny.1 mph98%30.10 "Hg2 mi
6:00 AM45 °FPassing clouds.2 mph98%30.09 "Hg1 mi
5:00 AM47 °FClear.1 mph98%30.08 "Hg2 mi
4:00 AM49 °FFog.1 mph97%30.07 "Hg1 mi
3:00 AM49 °FFog.2 mph97%30.06 "Hg2 mi
2:00 AM50 °FFog.2 mph96%30.06 "Hg3 mi
1:00 AM51 °FClear.1 mph96%30.04 "Hg7 mi
12:00 AM53 °FClear.1 mph92%30.03 "Hg9 mi
11:00 PM
Aug 31
53 °FOvercast.3 mph93%30.02 "Hg12 mi
10:00 PM54 °FOvercast.3 mph92%30.01 "Hg14 mi
Weather by CustomWeather, © 2014

See weather overviewHow to use our weather pages